Location: Sungai Bunut
(2.6333°N, 113.7333°E)
Time: 03:18:59
(UTC+00:00)

Vanguard 3 - Pass Details

Date: 07 December 2023
Orbit: 508 x 3239 km, 33.4° (Epoch: 24 February)

Event Time Altitude Azimuth Distance (km) Brightness Sun altitude
Rises 21:25:20 0° 307° (NW) 2,649 - -12.8°
Reaches altitude 10° 21:27:30 10° 308° (NW) 1,710 - -12.3°
Exits shadow 21:28:28 18° 309° (NW) 1,303 7.6 -12.1°
Maximum altitude 21:31:08 82° 34° (NE) 530 6.2 -11.5°
Drops below altitude 10° 21:35:22 10° 123° (ESE) 1,988 10.7 -10.5°
Sets 21:38:04 0° 124° (SE) 3,139 12.1 -9.9°
